Wind_Speed
24 19 23 28 31 28 29 26 24 18 15 14 19 11 9 4 6 5 3 1 5 5 7 9 8 8 8 8 9 11 12 12
16 20 26 29 27 25 26 28 28 22 17 12 19 13 15 21 12 8 10 5 1 4 6 6 8 7 7 8 9 10 9 8
18 24 22 15 23 30 30 25 24 23 23 16 23 28 26 25 20 17 13 12 8 5 4 6 6 7 5 5 6 8 9 8
22 22 22 25 23 18 23 27 29 29 25 22 18 15 19 36 21 22 16 14 13 12 6 9 8 7 7 7 8 8 8 7
29 27 27 30 28 26 27 25 29 27 26 29 26 19 32 36 30 24 20 16 16 15 13 11 10 9 8 7 10 11 11 10
39 30 27 25 24 26 27 27 26 31 28 22 19 29 37 32 37 31 26 21 18 18 18 18 17 16 15 14 13 14 14 13
45 47 45 43 38 33 30 29 31 27 24 26 26 28 34 38 40 36 34 29 26 23 21 26 22 21 22 22 18 15 15 15
51 52 51 54 52 58 56 49 43 36 37 33 38 38 29 39 37 39 38 36 33 32 28 30 29 23 21 23 20 17 16 15
54 49 51 59 55 51 55 56 52 51 50 36 39 45 50 46 43 40 40 38 37 36 36 31 31 26 25 23 24 19 19 17
48 48 57 52 49 42 39 48 54 55 52 49 42 42 49 54 38 41 35 37 38 38 36 35 36 34 31 28 28 26 22 19
45 45 48 49 48 47 42 51 51 51 49 49 42 44 61 53 48 44 40 40 41 39 37 39 38 39 37 34 32 31 27 26
38 42 48 38 40 37 38 53 50 49 48 53 56 52 49 54 54 52 46 45 45 47 41 41 42 43 45 43 40 38 37 36
46 50 47 39 42 39 42 47 43 39 44 53 56 46 49 49 50 51 52 49 48 50 48 47 50 45 43 47 46 46 43 44
49 54 44 33 41 47 46 47 50 46 52 51 44 47 40 45 45 46 49 53 54 51 53 53 52 51 50 48 49 50 48 52
47 47 47 45 47 46 45 44 55 52 51 51 44 42 39 41 43 45 48 52 55 58 56 54 58 59 54 53 51 51 51 54
48 39 40 42 49 49 46 49 51 58 53 48 46 46 40 45 43 42 44 48 53 54 54 57 56 62 61 57 53 51 50 49
44 41 44 44 49 52 55 53 50 50 55 50 48 47 44 44 43 41 40 44 46 50 51 54 58 58 63 62 56 56 54 54
46 40 46 38 39 48 54 51 46 39 48 50 46 44 44 43 41 41 40 44 43 45 47 48 50 53 59 59 62 57 53 50
41 37 40 33 37 40 46 47 43 40 48 47 40 42 41 38 39 39 39 39 39 39 41 42 45 48 51 53 56 60 60 59
Wind_Direction
248 240 253 253 254 256 252 256 260 261 282 236 287 241 240 280 214 253 263 129 115 119 128 137 136 135 132 137 151 161 163 162
247 256 251 254 246 239 248 253 253 251 253 262 233 242 246 242 241 243 264 261 235 157 154 152 140 141 150 154 162 165 168 167
248 250 261 266 263 249 232 231 250 261 252 249 236 240 248 245 246 238 257 267 272 293 219 178 178 172 185 196 195 191 187 179
245 253 267 244 234 236 258 248 246 240 234 227 248 249 240 234 230 241 248 244 262 255 277 253 235 224 210 233 242 237 226 212
263 258 250 261 257 250 243 237 233 236 245 244 262 243 249 237 225 232 236 231 243 262 252 260 255 245 246 235 252 257 251 242
257 243 221 244 238 240 235 235 245 244 225 217 243 259 260 229 224 226 230 229 225 233 246 251 256 257 257 243 235 246 246 241
260 255 247 230 243 242 237 239 234 233 238 223 217 249 257 248 225 223 223 223 226 228 238 247 248 254 258 253 244 240 245 245
260 261 256 255 240 244 246 250 247 240 237 219 212 217 251 241 229 230 224 224 224 228 231 242 242 251 255 256 239 231 245 243
263 260 260 255 256 250 250 250 251 249 244 243 241 224 232 245 243 241 235 235 232 230 229 239 238 240 244 249 246 248 256 240
267 263 258 262 256 253 253 253 250 253 252 242 242 244 239 243 240 238 231 235 233 234 232 234 233 235 239 242 243 246 244 248
266 263 268 262 260 260 260 255 251 252 249 248 246 241 243 242 239 239 231 224 226 230 228 231 231 231 229 233 237 242 240 244
269 268 265 265 262 260 255 254 250 247 247 246 246 246 248 244 239 238 236 230 223 224 223 223 230 233 228 232 233 237 240 241
280 276 270 269 260 240 250 255 250 242 247 242 243 240 243 242 239 239 239 236 233 230 226 225 227 229 236 236 236 239 241 240
274 274 274 271 262 254 246 246 245 237 244 246 242 239 240 241 239 236 235 238 236 235 235 230 227 232 233 236 238 239 244 246
270 271 268 266 259 244 240 231 243 240 237 241 238 231 225 231 231 232 232 235 237 236 235 235 232 232 231 235 237 243 247 254
282 284 268 262 254 252 246 246 249 246 241 237 232 226 219 223 225 229 231 230 235 239 241 239 239 236 231 234 240 245 247 253
291 283 269 261 256 246 242 245 243 242 239 235 232 224 220 225 228 231 234 235 234 236 239 242 241 240 239 237 237 243 248 252
296 289 271 250 253 247 239 235 240 242 237 231 226 224 223 224 232 237 239 238 238 238 239 240 242 243 242 242 243 239 241 246
297 292 278 255 249 247 243 236 227 237 232 225 224 221 222 224 231 236 237 236 238 239 240 242 244 244 242 243 244 244 245 247
Height
5901 5903 5903 5904 5904 5911 5912 5913 5912 5915 5911 5918 5915 5915 5914 5915 5914 5913 5912 5910 5908 5908 5908 5908 5908 5909 5910 5912 5914 5915 5917 5919
5894 5894 5893 5894 5899 5902 5906 5906 5907 5909 5910 5915 5912 5912 5910 5911 5912 5912 5912 5912 5911 5910 5910 5910 5910 5911 5912 5914 5915 5916 5918 5920
5888 5888 5888 5893 5891 5891 5895 5901 5904 5905 5908 5913 5907 5903 5905 5906 5909 5910 5910 5912 5912 5911 5911 5911 5912 5912 5913 5914 5915 5916 5917 5919
5881 5886 5886 5883 5885 5888 5887 5890 5895 5899 5902 5893 5900 5898 5897 5897 5905 5907 5908 5909 5911 5911 5911 5911 5911 5912 5912 5914 5915 5916 5917 5918
5869 5875 5877 5876 5875 5877 5880 5885 5885 5890 5896 5899 5897 5887 5885 5892 5898 5901 5904 5905 5907 5908 5908 5909 5910 5911 5911 5912 5914 5915 5916 5917
5856 5863 5867 5864 5866 5867 5871 5875 5879 5878 5883 5888 5890 5883 5879 5887 5889 5893 5897 5900 5902 5905 5905 5904 5906 5908 5909 5910 5910 5912 5913 5914
5842 5844 5847 5851 5850 5853 5855 5861 5866 5873 5874 5879 5886 5873 5870 5876 5880 5884 5888 5892 5896 5899 5901 5899 5902 5904 5905 5906 5907 5908 5909 5910
5825 5828 5830 5830 5838 5840 5843 5846 5849 5854 5857 5864 5864 5865 5861 5865 5872 5875 5879 5883 5887 5891 5894 5893 5895 5898 5899 5901 5903 5904 5905 5906
5808 5814 5813 5811 5820 5827 5829 5832 5835 5836 5843 5853 5854 5856 5857 5857 5860 5863 5870 5873 5877 5881 5885 5885 5888 5891 5893 5895 5897 5900 5901 5903
5794 5797 5790 5805 5810 5808 5810 5813 5819 5822 5827 5833 5838 5843 5842 5842 5851 5851 5859 5863 5867 5871 5875 5878 5880 5883 5885 5888 5890 5893 5896 5898
5779 5779 5781 5786 5794 5793 5795 5796 5803 5806 5810 5816 5822 5829 5824 5834 5837 5842 5847 5852 5857 5861 5866 5869 5872 5874 5877 5880 5883 5886 5889 5892
5768 5765 5765 5776 5777 5778 5779 5773 5789 5791 5793 5798 5802 5812 5819 5814 5825 5830 5835 5840 5845 5849 5854 5858 5863 5865 5869 5872 5874 5878 5882 5883
5753 5749 5754 5763 5760 5758 5758 5772 5768 5773 5776 5780 5787 5795 5795 5805 5812 5818 5824 5828 5832 5837 5841 5846 5851 5855 5859 5861 5865 5868 5871 5874
5740 5735 5737 5745 5743 5742 5750 5747 5747 5756 5760 5765 5774 5780 5786 5791 5798 5804 5808 5813 5819 5823 5828 5834 5839 5843 5848 5852 5856 5858 5861 5864
5722 5720 5723 5723 5720 5724 5727 5731 5728 5736 5744 5749 5758 5765 5774 5778 5784 5789 5795 5800 5804 5809 5815 5822 5827 5831 5837 5841 5846 5848 5851 5854
5702 5708 5706 5706 5703 5705 5710 5713 5716 5719 5729 5736 5742 5750 5761 5766 5772 5778 5783 5789 5793 5797 5804 5810 5814 5821 5825 5830 5835 5838 5841 5843
5688 5687 5682 5683 5683 5687 5690 5696 5700 5705 5711 5722 5728 5738 5749 5756 5762 5768 5773 5778 5784 5788 5792 5797 5802 5807 5814 5819 5824 5827 5830 5832
5671 5667 5660 5668 5667 5667 5669 5677 5686 5692 5698 5706 5716 5727 5737 5745 5751 5758 5764 5767 5772 5777 5781 5786 5790 5795 5801 5806 5811 5816 5818 5821
5655 5650 5644 5647 5648 5650 5654 5661 5668 5677 5684 5696 5708 5717 5726 5736 5743 5748 5752 5757 5762 5767 5771 5775 5778 5782 5787 5791 5796 5801 5807 5810